Morristown, NJ

9:06 PM EST on November 13, 2019 (GMT -0500)
Morristown Municipal

Weather History for KMMU - September, 2019

Change the Weather History Date:

Monday, September 23, 2019

  Actual Average Record
Temperature  
Mean Temperature 74 °F -  
Max Temperature 89 °F 73 °F 92 °F (1941)
Min Temperature 60 °F 49 °F 34 °F (1963)
Cooling Degree Days 10    
Growing Degree Days 24 (Base 50)    
Moisture  
Dew Point 65 °F    
Average Humidity 84    
Maximum Humidity 100    
Minimum Humidity 38    
Precipitation  
Precipitation 0.02 in - - ()
Sea Level Pressure  
Sea Level Pressure 29.88 in    
Wind  
Wind Speed 2 mph ()    
Max Wind Speed 15 mph    
Max Gust Speed 26 mph    
Visibility 9.6 miles    
Events Rain    
Averages and records for this station are not official NWS values.
T = Trace of Precipitation, MM = Missing Value Source: Averaged Metar Reports

Daily Weather History Graph

Daily Weather History Graph

Search for Another Location

Airport or City:

Astronomy

Sep. 23, 2019 Rise Set
Actual Time 6:45 AM EDT 6:53 PM EDT
Civil Twilight 6:18 AM EDT 7:20 PM EDT
Nautical Twilight 5:46 AM EDT 7:52 PM EDT
Astronomical Twilight 5:13 AM EDT 8:25 PM EDT
Moon 12:24 AM EDT (9/23) 3:46 PM EDT (9/23)
Length of Visible Light 13h 02m
Length of Day
12h 07m
Waning Crescent, 33% of the Moon is Illuminated
Sep 23
Waning Crescent
Sep 28
New
Oct 5
First Quarter
Oct 13
Full
Oct 21
Last Quarter

Hourly Weather History & Observations

Time (EDT) Temp. Heat Index Dew Point Humidity Pressure Visibility Wind Dir Wind Speed Gust Speed Precip Events Conditions
12:15 AM 64.4 °F - 64.4 °F 100% 30.00 in 10.0 mi Calm Calm - N/A   Clear
12:35 AM 62.6 °F - 62.6 °F 100% 29.99 in 10.0 mi Calm Calm - N/A   Clear
12:55 AM 62.6 °F - 62.6 °F 100% 29.99 in 10.0 mi Calm Calm - N/A   Clear
1:15 AM 64.4 °F - 64.4 °F 100% 29.98 in 10.0 mi Calm Calm - N/A   Clear
1:35 AM 62.6 °F - 62.6 °F 100% 29.98 in 7.0 mi Calm Calm - N/A   Clear
1:55 AM 62.6 °F - 62.6 °F 100% 29.97 in 10.0 mi Calm Calm - N/A   Clear
2:15 AM 62.6 °F - 62.6 °F 100% 29.96 in 7.0 mi Calm Calm - N/A   Clear
2:35 AM 62.6 °F - 62.6 °F 100% 29.96 in 7.0 mi Calm Calm - N/A   Clear
2:55 AM 62.6 °F - 62.6 °F 100% 29.95 in 7.0 mi Calm Calm - N/A   Clear
3:15 AM 60.8 °F - 60.8 °F 100% 29.95 in 10.0 mi Calm Calm - N/A   Clear
3:35 AM 62.6 °F - 62.6 °F 100% 29.95 in 10.0 mi Calm Calm - N/A   Clear
3:55 AM 62.6 °F - 62.6 °F 100% 29.94 in 10.0 mi Calm Calm - N/A   Clear
4:15 AM 60.8 °F - 60.8 °F 100% 29.94 in 7.0 mi Calm Calm - N/A   Clear
4:35 AM 62.6 °F - 62.6 °F 100% 29.94 in 10.0 mi Calm Calm - N/A   Clear
4:55 AM 62.6 °F - 62.6 °F 100% 29.93 in 10.0 mi Calm Calm - N/A   Clear
5:15 AM 62.6 °F - 62.6 °F 100% 29.93 in 10.0 mi Calm Calm - N/A   Clear
5:35 AM 62.6 °F - 62.6 °F 100% 29.93 in 10.0 mi Calm Calm - N/A   Clear
5:55 AM 62.6 °F - 62.6 °F 100% 29.93 in 7.0 mi Calm Calm - N/A   Clear
6:15 AM 64.4 °F - 64.4 °F 100% 29.93 in 10.0 mi Calm Calm - N/A   Clear
6:35 AM 64.4 °F - 64.4 °F 100% 29.93 in 10.0 mi Calm Calm - N/A   Clear
6:45 AM 62.6 °F - 62.6 °F 100% 29.94 in 10.0 mi Calm Calm - N/A   Scattered Clouds
7:55 AM 68.0 °F - 68.0 °F 100% 29.94 in 10.0 mi Calm Calm - N/A   Scattered Clouds
8:55 AM 71.6 °F - 68.0 °F 88% 29.93 in 10.0 mi Calm Calm - N/A   Scattered Clouds
9:55 AM 75.2 °F - 69.8 °F 83% 29.92 in 10.0 mi Calm Calm - N/A   Scattered Clouds
10:45 AM 78.8 °F - 69.8 °F 74% 29.90 in 10.0 mi SW 8.1 mph - N/A   Scattered Clouds
11:50 AM 82.4 °F 86.3 °F 69.8 °F 66% 29.88 in 10.0 mi SW 8.1 mph - N/A   Scattered Clouds
12:45 PM 86.0 °F 90.4 °F 69.8 °F 58% 29.85 in 10.0 mi WSW 11.5 mph 17.3 mph N/A   Partly Cloudy
1:45 PM 87.8 °F 91.4 °F 68.0 °F 52% 29.83 in 10.0 mi SSW 6.9 mph - N/A   Partly Cloudy
2:55 PM 89.6 °F 89.5 °F 60.8 °F 38% 29.80 in 10.0 mi West 15.0 mph 26.5 mph N/A   Scattered Clouds
3:45 PM 89.6 °F 90.1 °F 62.6 °F 40% 29.78 in 10.0 mi WNW 9.2 mph 19.6 mph N/A   Mostly Cloudy
4:45 PM 87.8 °F 87.6 °F 60.8 °F 40% 29.77 in 10.0 mi West 12.7 mph 20.7 mph N/A   Scattered Clouds
5:45 PM 86.0 °F 86.6 °F 62.6 °F 45% 29.75 in 10.0 mi WSW 10.4 mph - N/A   Scattered Clouds
6:45 PM 84.2 °F 85.6 °F 64.4 °F 51% 29.75 in 10.0 mi WSW 6.9 mph - N/A   Overcast
7:45 PM 84.2 °F 85.6 °F 64.4 °F 51% 29.76 in 10.0 mi SW 6.9 mph - N/A   Overcast
8:45 PM 80.6 °F 82.3 °F 64.4 °F 58% 29.76 in 10.0 mi West 8.1 mph 13.8 mph N/A   Overcast
9:45 PM 80.6 °F 82.7 °F 66.2 °F 61% 29.77 in 10.0 mi West 9.2 mph - N/A   Overcast
10:35 PM 73.4 °F - 66.2 °F 78% 29.77 in 10.0 mi West 6.9 mph - N/A Rain Light Rain
10:55 PM 73.4 °F - 68.0 °F 83% 29.78 in 10.0 mi WSW 6.9 mph - N/A Rain Rain
11:15 PM 71.6 °F - 69.8 °F 94% 29.77 in 10.0 mi WSW 4.6 mph - 0.02 in   Overcast
11:35 PM 71.6 °F - 69.8 °F 94% 29.77 in 10.0 mi SSW 3.5 mph - 0.02 in   Overcast
11:55 PM 69.8 °F - 69.8 °F 100% 29.77 in 10.0 mi SW 4.6 mph - N/A   Overcast